Regional Weather Roundup
Issued by NWS

Home | Current Version | Previous Version | Text Only | Print | Product List | Glossary Off
Versions: 1 2 3 4 5 6 7 8 9 10 11 12 13 14 15 16 17 18 19 20 21 22 23 24 25 26 27 28 29 30 31 32 33 34 35 36 37 38 39 40 41 42 43 44 45 46 47 48 49 50

000
ASUS43 KOAX 210110
RWRNE

WEATHER ROUNDUP FOR NEBRASKA
NATIONAL WEATHER SERVICE OMAHA NE
800 PM CDT SAT SEP 20 2014

NOTES: SATELLITE DATA IS BEING USED TO AUGMENT CLOUD COVER ABOVE
       12000 FEET.
       "FAIR" INDICATES FEW OR NO CLOUDS BELOW 12,000 FEET WITH NO
       SIGNIFICANT WEATHER AND/OR OBSTRUCTIONS TO VISIBILITY.

  * THESE STATIONS DO NOT REPORT WEATHER SUCH AS RAIN...SNOW OR FOG.

NEZ001>004-019>022-054>056-210200-
NEBRASKA PANHANDLE

CITY           SKY/WX    TMP DP  RH WIND       PRES   REMARKS
SCOTTSBLUFF    CLEAR     73  42  32 N13       30.20R
ALLIANCE       CLEAR     67  44  43 NE13      30.20R
CHADRON        CLEAR     68  41  37 NE8       30.20R
KIMBALL        CLEAR     71  42  34 NE9       30.22R
SIDNEY         CLEAR     74  44  34 NE13      30.21R
$$

NEZ057>060-069>072-079>082-210200-
SOUTHWEST NEBRASKA

CITY           SKY/WX    TMP DP  RH WIND       PRES   REMARKS
NORTH PLATTE   CLEAR     72  49  44 N12       30.10R
IMPERIAL       CLEAR     74  51  44 N7        30.13R
LEXINGTON      CLEAR     72  55  55 NE8       30.07R
MCCOOK         CLEAR     77  51  40 N6        30.08R
OGALLALA       CLEAR     72  49  43 N9        30.14R
$$

NEZ005>010-023>029-035>040-094-210200-
NORTH CENTRAL NEBRASKA

CITY           SKY/WX    TMP DP  RH WIND       PRES   REMARKS
VALENTINE      CLEAR     69  39  33 N10       30.14R
AINSWORTH      CLEAR     66  41  40 N10G17    30.12R
BROKEN BOW     CLEAR     72  46  39 N10       30.08R
O`NEILL        CLEAR     69  48  46 NW10      30.07R
ORD            CLEAR     67  50  54 NW7       30.04R
THEDFORD       CLEAR     72  44  36 N8G17     30.14R
$$

NEZ041-046>049-061>064-073>077-083>087-210200-
SOUTH CENTRAL NEBRASKA

CITY           SKY/WX    TMP DP  RH WIND       PRES   REMARKS
GRAND ISLAND   CLEAR     71  54  54 N8        30.03R
AURORA         CLEAR     69  59  69 N6        30.01R
HASTINGS       CLEAR     71  55  56 CALM      30.03R HAZE
HEBRON         CLEAR     73  56  56 CALM      30.00R
HOLDREGE       CLEAR     70  55  57 CALM      30.06R
KEARNEY *      CLEAR     72  52  49 NW6       30.05R
YORK           CLEAR     68  61  77 NW6       30.00R
$$

NEZ011>018-030>034-042>045-210200-
NORTHEAST NEBRASKA

CITY           SKY/WX    TMP DP  RH WIND       PRES   REMARKS
NORFOLK        CLEAR     74  50  42 NW15G22   29.99R
ALBION         CLEAR     71  48  43 NW6       30.02R
BLAIR          CLEAR     74  60  61 SW5       29.94R
COLUMBUS *     CLEAR     68  55  64 NW7       29.99R
FREMONT        CLEAR     70  58  66 W3        29.95R
TEKAMAH        CLEAR     71  60  68 W7        29.92R
WAYNE          CLEAR     71  53  53 NW8       29.97R
$$

NEZ050>053-065>068-078-088>093-210200-
SOUTHEAST NEBRASKA

CITY           SKY/WX    TMP DP  RH WIND       PRES   REMARKS
LINCOLN        CLEAR     77  59  53 W5        29.97R
OMAHA EPPLEY   PTCLDY    78  58  49 W3        29.92S
BEATRICE       CLEAR     70  58  66 N6        29.98R HAZE
FALLS CITY     CLEAR     75  70  84 W7        29.95R
NEBRASKA CITY    N/A     74  51  44 NW6       29.96R
PLATTSMOUTH    CLEAR     72  59  62 SW6       29.94S
$$

NEZ044-045-051>053-067-210200-
OMAHA AREA

CITY           SKY/WX    TMP DP  RH WIND       PRES   REMARKS
OMAHA EPPLEY   PTCLDY    78  58  49 W3        29.92S
BLAIR          CLEAR     74  60  61 SW5       29.94R
FREMONT        CLEAR     70  58  66 W3        29.95R
MILLARD        CLEAR     70  62  75 CALM      29.93S
OFFUTT AFB     CLEAR     75  62  64 SW3       29.93S
PLATTSMOUTH    CLEAR     72  59  62 SW6       29.94S
WAHOO          FAIR      71  60  67 W5        29.95S
$$



USA.gov is the U.S. government's official web portal to all federal, state and local government web resources and services.